Theta_e
311 311 311 311 311 311 311 310 309 307 306 313 310 315 315 308 307 320 323 323 322 315 306 308 301 305 306 306 306 308 306 305 305 303 304 302 303 303 301 301 299 301 301 299 299 298 297 297 297 298 298 299 300 302 305 306 305 304 300 301 303 302 293 290 293 296 299 301 302 303 303 305 300 300 301 300 296 298 295 293 295 291 291 289 288 285 290
311 311 311 311 311 311 311 311 309 308 306 310 312 313 311 311 312 316 324 324 322 310 297 298 300 306 306 308 307 307 307 305 303 302 303 303 302 301 300 301 302 301 301 300 297 300 292 298 296 297 299 298 303 306 307 305 302 302 301 298 306 294 298 293 288 289 291 295 298 299 303 302 299 298 301 301 301 300 300 299 298 289 291 292 288 283 288
311 311 311 311 311 311 311 311 310 308 306 309 311 310 311 310 316 315 315 320 319 307 309 305 298 304 305 305 303 304 304 307 307 305 302 303 303 302 300 301 302 300 301 300 300 301 299 297 300 298 298 300 302 304 306 304 304 304 308 306 307 296 295 293 286 283 281 281 284 288 291 295 298 300 300 300 299 299 296 290 292 287 291 293 289 288 295
311 311 311 311 311 310 310 310 309 308 306 305 312 312 311 308 297 310 311 314 314 311 312 311 307 305 305 298 305 305 303 304 306 306 303 304 303 304 302 301 301 299 299 297 298 298 300 298 298 298 298 299 300 303 304 304 305 307 305 306 306 297 300 296 292 289 289 291 294 299 299 297 293 297 298 298 299 300 299 297 291 288 291 290 294 293 295
311 311 311 311 310 310 310 310 309 308 306 304 310 313 312 311 305 302 300 310 309 308 310 308 308 302 307 296 305 302 303 304 303 306 302 303 303 302 302 300 298 298 298 297 297 298 298 300 297 298 298 300 301 304 306 308 308 306 303 306 304 299 293 297 297 296 295 297 297 298 297 295 298 297 296 298 298 299 298 292 290 296 292 287 295 297 295
312 311 311 311 310 310 310 310 310 308 306 304 312 312 314 305 309 309 310 303 300 301 302 309 308 308 308 304 306 303 303 302 299 303 305 304 304 300 301 301 301 300 298 298 293 296 297 298 294 300 299 298 300 300 304 306 308 307 305 307 302 298 291 298 296 295 297 298 297 298 298 297 297 298 297 297 298 298 296 296 298 298 291 289 295 298 296
312 311 311 311 311 311 311 310 310 309 306 306 314 309 314 312 311 310 311 303 306 307 308 309 308 307 307 304 305 303 302 301 304 304 303 302 302 302 293 299 301 300 300 299 296 296 292 291 298 298 299 298 299 297 300 304 308 307 305 304 306 299 294 298 297 295 296 297 296 297 296 296 297 296 296 297 297 297 298 297 298 297 296 297 298 298 298
311 312 311 311 311 311 311 310 309 308 305 310 312 311 308 308 307 307 313 310 307 309 309 309 306 304 305 297 304 304 303 302 304 303 303 297 302 303 300 301 301 301 300 299 297 298 298 298 294 300 299 300 299 298 300 299 303 304 302 304 305 298 291 296 298 292 294 297 297 297 296 296 294 296 296 297 296 296 297 298 298 298 298 298 298 297 296
311 311 311 311 311 311 311 311 310 308 306 314 308 310 310 309 312 311 308 305 307 307 307 306 305 302 304 301 305 303 303 303 305 304 306 304 302 302 301 303 302 302 301 301 300 302 301 300 300 301 301 295 302 298 300 302 300 302 302 302 303 300 293 299 296 289 290 296 294 295 296 295 294 294 295 295 295 294 296 294 298 296 294 297 297 295 295
311 311 311 311 311 312 311 311 310 307 305 314 311 307 311 312 312 311 309 303 303 304 306 306 304 297 305 305 305 303 304 306 305 298 307 306 306 306 305 305 303 303 301 301 302 305 304 303 303 303 303 304 302 303 303 301 300 299 300 304 299 300 296 292 292 289 289 296 294 294 294 293 289 290 295 297 297 297 298 298 300 300 300 294 290 293 301
311 311 311 311 311 312 312 311 311 308 313 313 311 309 310 307 307 310 310 301 305 305 305 304 302 306 307 306 305 307 306 306 306 300 297 306 306 309 308 306 303 301 302 305 307 307 307 307 306 305 303 303 302 304 303 303 302 302 300 300 299 300 297 292 296 287 288 294 294 295 290 283 285 297 299 297 296 297 296 296 299 301 302 298 300 301 303
311 311 311 311 311 311 312 311 311 308 309 315 314 312 311 312 311 310 307 298 298 306 303 301 303 306 305 308 307 306 305 305 305 307 303 305 308 308 307 307 305 296 308 309 309 308 307 306 305 305 304 303 302 304 302 301 302 303 302 300 298 297 296 293 296 290 288 292 293 286 280 284 298 300 302 302 301 299 298 299 300 301 302 302 301 301 302
311 311 311 311 311 311 311 311 311 309 308 314 314 312 313 313 309 308 308 303 297 303 299 302 306 306 308 308 306 306 307 308 308 309 308 306 307 307 307 306 305 305 309 308 308 307 302 301 302 301 300 301 301 302 301 301 300 303 303 302 299 294 293 292 291 292 292 288 287 279 282 295 299 302 303 302 300 299 300 297 300 301 301 302 301 302 303
311 311 311 311 311 311 311 311 311 310 308 310 311 313 312 312 308 307 307 301 297 305 306 303 304 304 305 306 306 307 307 307 309 309 306 308 306 306 307 307 309 311 311 311 307 305 300 300 293 296 297 299 298 296 299 300 301 301 301 302 302 299 297 295 290 295 285 287 287 287 295 293 296 296 299 301 298 300 297 290 296 302 303 303 302 303 303
311 311 311 311 311 311 311 311 311 310 308 307 310 310 311 313 312 309 310 306 297 301 305 295 302 303 305 306 306 304 304 305 305 303 307 311 307 308 309 309 311 310 312 307 303 303 298 297 291 290 293 291 286 288 296 294 299 300 301 303 302 301 295 296 290 288 292 287 286 287 287 284 289 298 303 305 305 306 304 300 295 304 304 305 303 302 304
310 310 311 311 311 311 311 310 310 310 308 307 309 310 311 313 314 313 309 304 301 292 298 303 306 305 303 305 307 305 301 302 303 304 304 306 306 308 309 311 311 312 309 306 304 299 296 292 289 289 288 290 294 291 290 295 294 298 300 300 300 301 300 297 292 289 290 287 284 284 282 286 297 299 302 305 307 306 305 299 291 301 303 305 304 303 304
310 310 310 310 311 311 310 310 310 310 308 307 307 309 309 313 312 311 308 306 302 294 304 305 307 306 302 302 305 303 305 301 304 299 298 302 304 306 308 310 313 311 307 305 303 298 293 292 295 294 295 296 291 289 294 293 291 294 298 299 297 296 294 293 290 288 289 288 286 284 288 287 296 301 302 304 306 306 301 287 288 300 305 305 305 304 304
310 310 310 310 310 311 310 310 310 310 309 307 308 308 310 314 314 313 308 306 302 299 303 306 304 303 301 303 301 306 308 306 305 306 303 304 304 304 305 307 305 308 310 300 300 295 293 292 290 290 289 296 297 295 287 294 289 290 293 295 293 292 291 292 288 289 289 287 287 289 290 296 301 302 304 304 306 301 288 284 292 303 305 306 306 305 306
310 310 310 310 310 310 310 310 310 310 309 307 308 309 310 313 313 313 310 306 305 298 307 307 308 307 310 308 308 309 308 309 307 300 299 300 303 306 307 307 310 300 305 299 301 294 293 293 299 296 292 293 296 290 297 290 290 296 295 291 292 292 292 291 291 288 288 290 287 288 291 299 303 304 305 306 299 287 287 299 306 306 306 307 307 306 307
310 310 310 310 310 310 310 310 310 310 310 308 307 306 311 311 313 313 308 304 306 304 308 306 307 303 309 305 303 302 305 305 306 302 301 296 307 306 303 298 305 305 302 304 294 298 293 291 294 298 293 294 295 298 294 296 299 295 295 297 292 293 288 288 288 291 291 290 288 287 283 294 304 304 302 304 291 294 304 305 306 307 307 306 307 307 308
309 309 309 309 310 310 310 310 310 310 310 309 307 308 308 312 312 314 315 311 306 300 305 309 306 305 306 307 308 307 306 303 305 302 303 304 309 304 293 293 301 301 297 298 292 293 294 293 296 294 298 297 297 296 291 292 295 301 298 296 295 300 290 291 292 295 288 288 285 286 294 303 307 303 295 301 302 307 307 306 304 308 307 307 306 307 308
309 309 309 309 310 310 310 310 310 310 310 310 308 308 307 310 310 312 313 312 306 301 307 309 309 309 311 312 313 314 311 309 310 311 308 303 309 305 303 305 304 303 305 305 300 298 300 299 300 294 293 295 298 293 297 291 289 297 300 299 288 298 295 297 291 298 293 291 294 300 303 305 307 306 306 307 308 309 311 309 307 306 306 309 307 307 309
309 309 309 309 310 310 310 310 310 310 310 310 308 307 306 307 306 310 309 303 307 308 311 310 312 311 312 312 313 313 313 314 314 313 311 305 302 306 304 304 304 309 309 307 302 300 300 299 294 299 296 298 294 293 296 295 292 297 292 299 298 303 302 305 299 296 302 303 303 305 304 305 305 308 308 308 310 310 310 309 306 308 308 309 307 309 309
308 308 309 309 310 310 310 310 310 309 309 309 308 307 307 309 308 307 306 305 302 298 303 308 306 303 307 309 313 314 313 311 312 314 316 313 300 300 307 308 309 309 307 309 314 303 302 301 300 302 293 299 300 294 290 290 291 297 297 296 300 302 303 300 296 300 297 291 302 301 302 304 305 305 308 309 310 309 309 309 308 308 309 309 311 310 310
308 308 308 309 309 310 310 310 309 309 309 309 309 310 311 306 307 307 302 293 294 295 293 299 301 310 311 308 308 308 312 314 315 314 313 313 309 303 302 308 311 307 305 309 312 306 302 297 299 299 292 300 301 292 299 293 293 300 293 296 298 297 304 298 299 299 294 294 300 303 305 306 307 305 304 305 307 308 309 310 310 309 310 311 311 312 311
308 308 308 308 309 309 309 309 309 309 309 309 309 307 306 307 309 310 310 306 304 301 294 296 305 309 310 307 306 307 309 309 311 312 312 311 311 310 309 310 310 312 311 310 309 303 300 298 299 299 295 295 304 296 295 299 298 301 297 296 301 303 301 293 299 297 299 302 303 303 304 304 305 306 307 307 307 307 308 309 310 310 309 310 311 312 310
308 308 308 308 308 309 309 309 309 309 308 309 309 309 309 311 310 307 305 304 302 295 296 296 306 303 305 305 309 310 308 308 308 309 309 310 309 310 310 309 308 308 307 306 307 303 301 299 298 296 300 299 302 300 301 299 299 296 295 300 304 300 296 300 299 293 293 294 298 301 295 295 301 305 307 308 309 309 309 309 308 309 309 309 308 310 312
307 308 308 308 308 309 309 309 309 308 308 308 309 310 310 309 310 309 311 312 307 297 295 297 301 306 308 306 309 309 309 308 308 307 307 307 308 307 307 307 307 305 304 302 297 297 296 295 296 300 302 303 299 296 302 301 301 297 297 298 302 299 300 300 295 294 293 300 302 303 303 302 303 304 307 308 308 309 308 308 308 308 309 309 309 309 309
307 307 308 308 308 308 308 308 308 308 308 308 309 308 307 309 311 311 310 313 310 302 296 298 306 303 298 306 308 308 309 309 308 307 306 306 306 306 306 306 305 305 305 302 299 297 296 297 298 298 299 305 301 296 298 293 292 291 296 303 303 304 305 303 303 303 303 305 304 305 303 300 303 306 307 307 309 309 308 309 309 309 309 309 309 310 309
306 307 308 308 308 308 308 308 308 308 308 309 307 303 298 301 309 309 310 311 310 309 297 295 293 297 308 307 306 307 307 308 308 308 307 306 305 305 305 305 305 305 304 300 298 294 297 297 297 304 305 309 299 296 293 295 293 295 302 303 304 306 306 306 306 303 301 306 307 307 306 306 307 307 307 309 310 309 308 308 308 308 308 309 308 309 310
305 306 307 308 308 308 308 308 308 308 307 307 304 295 293 291 302 311 309 311 313 306 293 294 294 297 298 307 309 307 305 305 306 306 306 307 306 306 306 306 306 305 299 300 299 298 298 296 297 300 305 305 300 295 295 294 292 295 300 303 304 304 305 305 307 307 306 306 306 307 307 306 308 308 307 307 308 309 309 308 308 308 308 308 308 309 309
305 306 307 307 307 307 308 308 308 308 308 305 301 300 302 305 312 313 311 310 312 304 293 292 291 293 294 298 304 310 308 306 306 306 306 307 305 306 306 306 305 307 302 299 300 299 297 298 298 301 301 304 299 297 297 294 291 293 301 303 305 305 306 306 306 307 307 307 305 303 303 305 307 305 304 308 308 309 309 309 309 309 309 308 309 309 309
305 306 306 307 307 307 308 308 308 308 307 309 310 307 305 305 304 309 309 311 307 299 298 293 290 291 290 298 301 302 306 304 303 303 300 304 302 305 303 306 306 305 307 300 297 295 301 297 300 298 302 306 298 295 295 293 295 301 303 304 305 305 305 306 307 308 307 306 306 301 301 304 307 309 309 309 309 309 309 308 308 308 308 307 307 307 307
306 306 306 307 307 307 307 308 308 307 308 306 301 304 310 306 308 308 312 310 303 300 294 292 288 287 290 298 295 301 305 301 301 302 297 304 305 303 300 303 304 298 302 298 300 299 301 302 297 297 303 298 301 295 291 295 301 302 303 304 305 305 306 306 306 306 306 307 307 307 307 308 309 309 309 309 309 310 309 308 307 306 306 306 306 306 307
306 306 306 307 307 307 307 307 306 304 301 302 305 310 311 307 308 309 309 305 296 291 292 291 292 289 290 290 292 297 303 302 299 302 298 301 307 301 302 297 300 295 297 306 299 298 297 297 303 296 293 299 295 290 292 297 300 302 303 303 305 305 305 304 305 306 307 308 307 308 308 308 307 306 307 308 308 308 308 307 307 306 305 305 306 307 307
306 306 306 307 307 307 307 306 305 303 300 300 304 309 308 308 308 311 311 310 304 294 291 291 292 289 293 288 289 296 303 299 304 303 301 299 300 304 303 299 292 296 304 300 294 299 296 302 299 292 298 293 291 294 297 301 301 302 304 304 305 305 305 306 306 307 307 308 308 308 307 308 306 306 307 307 307 307 307 306 306 306 305 305 306 307 307
305 306 306 307 306 304 299 299 306 305 304 310 309 308 307 308 310 310 307 304 306 306 298 293 291 293 296 296 298 295 300 293 302 298 300 296 295 299 299 295 294 297 297 295 295 294 300 306 296 293 293 292 294 301 302 303 303 303 303 305 306 307 307 307 307 308 306 306 306 306 306 306 306 307 307 306 306 307 306 305 305 305 305 305 306 306 307
304 306 305 302 301 294 293 296 303 307 307 306 307 304 303 304 294 296 296 294 300 301 296 298 291 299 303 299 292 301 300 297 302 295 295 300 296 294 299 296 296 294 288 292 296 305 300 297 293 291 292 299 302 302 304 305 305 306 306 306 306 307 307 307 307 306 304 304 304 305 305 305 305 306 306 306 307 307 307 307 307 307 307 306 307 307 308
302 302 300 300 297 293 294 301 309 308 309 308 308 296 291 290 291 290 290 293 293 292 295 295 292 299 297 296 297 302 300 297 295 297 292 300 295 291 294 290 295 294 291 291 296 304 293 292 292 292 291 297 299 302 305 306 306 306 307 307 307 307 307 307 308 307 305 305 305 307 307 305 305 306 308 307 307 308 308 308 308 307 307 307 307 307 308
299 295 293 295 295 298 307 308 308 307 305 297 294 291 287 290 289 285 293 288 289 294 297 290 298 298 299 296 294 295 304 297 291 291 294 296 303 293 294 293 296 292 287 288 292 302 293 290 292 291 290 296 299 304 306 306 306 307 308 308 309 308 308 308 308 309 309 309 309 309 309 309 308 308 308 308 308 307 307 308 307 307 307 306 306 307 307
297 297 297 294 303 305 305 308 309 305 296 290 289 287 287 285 289 291 289 288 289 291 299 298 298 296 299 300 300 293 301 304 303 306 299 293 302 300 293 289 296 289 288 288 296 297 295 292 292 291 292 298 302 305 306 306 306 307 308 308 308 308 308 308 309 309 309 308 308 309 309 309 309 309 309 309 309 308 308 308 308 307 307 307 306 307 308
301 301 306 309 307 306 305 302 295 289 289 290 287 284 286 288 290 289 290 287 288 293 295 297 293 295 296 300 301 301 295 304 304 296 295 291 295 293 290 292 293 288 286 293 299 295 293 287 289 290 296 301 304 305 305 305 305 305 306 307 308 308 308 308 308 309 310 309 309 309 310 310 310 309 309 309 309 309 308 308 308 308 307 308 308 308 309
303 305 306 302 299 296 294 290 290 290 285 283 284 282 286 283 286 287 288 293 299 297 297 303 302 304 304 304 297 300 297 302 296 294 293 291 294 294 291 290 288 283 290 298 293 290 288 287 288 292 299 301 304 305 305 305 306 306 306 307 307 308 308 308 308 308 310 310 310 310 310 310 310 311 311 310 310 309 309 307 307 308 309 309 308 308 308
302 302 296 292 291 290 292 282 291 287 284 286 284 281 284 284 287 290 289 291 295 295 297 294 296 297 293 301 296 293 295 296 296 294 293 294 291 288 289 286 287 294 297 291 289 286 288 291 293 296 300 303 304 305 305 306 306 306 305 306 307 308 308 308 308 308 308 309 310 310 310 310 310 310 310 310 310 309 308 309 309 308 309 309 308 308 309
292 291 290 288 286 288 287 281 291 286 282 284 287 287 288 286 289 291 291 298 298 295 298 300 299 298 294 297 299 296 296 292 298 291 287 291 288 290 287 287 292 293 289 286 288 289 290 289 295 298 300 301 303 305 305 306 306 305 305 306 306 307 307 307 308 308 308 308 309 309 309 309 309 309 309 309 310 310 309 308 309 308 309 308 308 308 309
288 287 287 284 282 285 285 284 286 282 288 291 289 292 293 295 296 296 300 301 299 299 297 299 300 299 293 295 292 291 294 294 290 291 292 291 287 285 292 296 294 287 287 287 286 285 287 291 295 298 301 302 304 305 306 306 306 306 305 304 306 306 307 307 308 308 308 309 309 309 308 308 308 308 308 309 309 310 309 309 309 309 309 309 308 308 309
290 289 287 287 285 286 287 284 286 289 293 294 296 297 297 298 301 302 301 301 300 301 301 302 301 298 292 291 292 293 294 295 289 292 294 287 286 290 295 289 284 286 283 283 285 287 291 294 298 301 303 304 305 305 305 305 305 305 305 306 306 306 307 307 307 307 308 308 308 308 308 308 308 308 308 308 308 310 309 310 310 310 309 308 308 309 309
285 288 288 281 281 286 284 287 296 297 298 298 298 300 300 302 300 298 301 302 303 303 299 297 293 293 291 295 297 290 292 293 289 290 292 290 291 288 286 285 285 287 288 287 288 293 294 298 300 303 305 305 305 305 305 305 305 305 306 306 306 306 306 307 307 307 308 308 308 308 308 308 308 308 308 308 308 309 310 310 310 310 310 309 309 309 309
290 287 285 285 288 289 289 293 295 293 295 297 299 299 299 299 298 300 301 303 302 299 300 297 293 292 288 291 290 289 287 292 286 286 291 289 286 283 283 281 283 283 289 292 293 295 297 300 303 305 305 305 305 305 305 305 305 305 305 305 306 306 307 306 307 307 307 307 307 307 307 307 308 308 308 308 307 307 309 311 311 310 310 309 309 309 309
287 285 286 286 287 289 294 295 294 292 295 297 297 297 299 298 298 301 303 300 298 296 296 294 297 290 289 289 285 287 287 290 289 290 288 286 286 288 287 283 286 287 290 294 295 297 300 301 304 304 304 305 305 305 305 305 303 304 306 306 306 306 306 307 306 307 307 307 307 308 309 309 308 308 308 307 307 307 308 310 310 310 310 310 309 309 308
287 287 288 296 290 289 292 288 289 289 292 294 296 297 298 297 299 298 302 299 297 294 292 289 289 287 286 286 286 283 286 292 289 287 287 287 290 289 286 286 289 294 295 298 299 300 301 303 303 303 304 305 305 306 306 306 306 306 306 306 306 307 306 307 307 307 307 307 308 301 308 308 309 309 309 308 307 305 305 306 307 309 310 310 309 309 309
286 285 287 292 295 296 295 297 297 296 296 297 297 299 300 297 299 300 302 299 294 290 288 291 289 287 286 284 286 289 291 289 286 288 286 290 293 289 289 291 295 297 298 298 300 302 302 304 305 304 304 303 304 306 306 306 306 306 306 306 306 306 306 306 306 307 307 307 308 309 309 310 310 310 309 307 306 304 303 304 307 309 309 310 309 310 309
Wind_Speed
8 8 8 9 11 12 12 13 12 14 18 11 10 6 4 3 2 4 2 3 3 6 2 2 2 2 4 3 4 4 3 1 3 3 3 3 1 2 3 1 3 2 3 0 3 1 3 3 4 2 3 1 4 5 2 1 3 6 2 3 4 2 3 3 7 5 3 2 2 0 2 4 6 8 5 5 8 7 8 8 7 6 1 4 4 7 3
8 7 7 8 10 12 12 11 11 10 12 8 9 6 3 3 3 2 3 1 3 5 3 2 2 3 4 1 4 1 1 2 4 3 2 2 3 1 1 3 2 2 2 2 3 2 4 3 4 5 3 2 6 5 0 3 3 4 2 4 6 3 3 3 4 4 4 6 5 5 3 4 7 7 6 6 4 4 4 6 5 7 9 9 6 8 3
7 6 6 7 8 11 11 11 9 8 8 8 6 5 4 4 2 3 1 1 3 5 3 3 1 4 6 5 5 6 3 2 4 1 3 2 1 2 2 2 1 2 1 2 2 1 4 3 3 4 3 2 5 5 1 3 3 1 5 4 3 4 1 3 5 5 4 5 6 3 4 9 7 6 3 5 8 7 5 6 6 7 7 8 6 7 3
7 6 5 6 7 9 10 10 9 8 7 10 6 4 4 1 2 3 3 1 2 1 0 3 3 4 5 3 3 3 4 3 1 3 3 1 2 2 1 2 3 2 3 4 5 4 2 5 1 3 4 5 4 3 3 1 1 5 3 1 3 3 2 6 6 7 7 4 6 1 5 4 6 6 7 7 6 7 8 7 7 8 4 6 9 9 10
7 5 4 5 6 8 9 9 9 7 5 5 6 4 4 3 3 1 2 3 2 1 2 2 4 3 4 2 4 6 4 4 5 0 3 4 2 2 2 2 4 3 4 4 4 3 3 4 5 5 6 3 3 4 1 5 5 8 4 1 2 4 6 6 8 9 9 7 5 4 4 7 7 7 8 7 7 8 9 8 8 5 6 10 7 8 9
7 6 5 4 5 6 8 8 8 8 6 7 5 4 1 3 2 2 3 3 1 3 3 1 2 3 5 1 1 2 5 6 4 4 1 3 4 3 4 4 4 2 3 2 3 3 4 4 4 2 6 5 7 5 7 6 7 7 3 2 4 6 5 1 4 8 8 6 6 2 4 7 8 9 10 10 10 10 12 13 13 11 9 10 7 3 8
8 7 5 4 5 6 6 6 7 8 6 5 6 5 1 2 2 2 2 2 2 4 4 2 2 4 4 2 3 4 5 6 4 1 5 5 5 6 2 4 4 5 3 4 3 2 3 2 3 4 4 6 5 7 6 5 8 7 4 4 1 4 7 0 4 7 7 8 7 5 7 8 9 10 11 12 13 13 14 15 14 14 16 14 14 15 16
9 7 6 5 6 6 5 5 6 7 11 5 5 4 4 4 4 2 1 3 1 1 1 2 4 5 3 3 4 4 5 5 5 4 5 3 4 3 5 3 2 4 5 5 5 3 4 4 4 3 5 4 5 7 7 1 8 7 7 5 4 5 1 3 3 4 8 6 4 6 7 8 11 11 11 12 13 14 14 13 14 15 15 15 15 16 16
9 8 6 6 6 6 5 3 3 6 7 6 4 3 4 3 3 3 5 4 3 2 3 4 5 4 5 5 4 4 5 6 4 5 6 7 4 6 5 1 3 3 5 6 7 6 5 5 6 3 4 5 2 6 3 7 6 7 6 5 4 4 3 2 5 5 6 3 5 4 6 8 12 13 13 14 14 15 13 12 12 13 14 14 14 13 13
10 9 7 7 7 7 6 4 2 1 3 4 5 4 2 3 2 3 5 4 2 4 3 3 3 4 3 3 3 5 3 2 2 3 4 6 4 3 4 3 4 4 5 7 6 4 5 6 6 5 5 6 4 3 4 3 7 6 8 5 7 6 6 4 3 7 5 1 2 5 8 11 11 13 12 11 11 12 12 12 12 13 13 12 11 12 9
10 9 8 8 8 8 8 6 5 4 4 5 6 5 3 4 4 4 3 4 3 4 3 4 6 2 2 3 4 3 3 3 4 6 2 4 5 3 3 4 5 4 2 3 5 2 2 2 3 3 5 6 6 4 4 5 6 7 7 6 6 7 7 6 5 6 6 5 5 7 8 8 4 7 4 1 4 4 7 8 9 10 11 11 10 10 8
11 10 10 9 9 9 9 8 7 7 4 1 1 5 2 2 3 4 4 4 1 2 4 4 3 1 5 3 4 4 6 6 7 6 7 4 3 4 4 5 3 3 6 4 3 3 3 3 3 4 6 6 7 5 6 8 9 8 8 9 8 8 7 6 5 6 7 6 5 7 8 7 5 1 3 6 9 10 12 12 11 10 10 13 14 14 13
12 11 11 10 10 10 10 10 9 9 6 3 2 5 2 1 3 4 5 6 3 3 5 3 1 2 1 2 4 5 3 3 3 4 5 6 4 4 6 4 5 2 5 4 3 3 5 4 5 5 7 6 8 9 11 12 12 11 9 9 10 7 7 5 5 5 6 6 5 5 2 7 11 4 2 4 2 4 6 9 12 14 13 12 13 12 11
12 12 11 11 12 12 12 11 11 10 10 6 3 2 3 4 3 3 4 3 4 1 4 4 4 5 6 7 6 3 2 4 3 3 7 7 7 7 6 5 1 4 3 4 3 4 4 2 2 3 5 5 6 8 10 12 12 12 13 10 9 12 9 7 7 6 7 5 7 9 11 14 9 3 3 3 1 3 1 5 6 4 6 10 11 11 11
13 12 12 12 12 12 13 13 12 11 11 9 2 2 3 4 4 4 3 4 5 3 2 3 1 5 6 6 5 6 6 5 4 5 5 2 4 4 3 5 4 3 4 5 3 3 3 3 3 3 3 4 3 1 2 4 3 1 5 8 10 10 12 7 7 4 5 8 8 6 6 6 2 6 6 1 2 2 2 5 9 3 3 5 8 8 7
13 13 13 12 12 13 13 14 13 13 12 11 5 4 4 4 3 3 4 4 4 5 3 7 3 2 4 4 5 8 5 3 5 5 6 7 6 5 4 3 3 4 5 4 4 3 2 3 3 3 4 3 2 3 3 1 3 4 1 5 9 9 10 11 8 7 6 7 8 7 6 4 3 4 5 4 2 1 4 6 5 7 3 1 3 5 5
13 13 13 13 13 13 14 14 14 14 13 14 8 6 5 7 6 5 4 4 5 6 3 3 2 5 5 4 3 6 7 5 5 4 4 7 8 6 6 5 4 6 6 5 4 3 3 3 6 6 6 3 4 3 4 5 3 3 5 5 8 9 8 7 10 10 10 8 9 8 4 4 0 0 5 6 4 0 6 5 0 6 5 2 1 2 1
13 12 12 13 13 14 14 15 15 15 15 17 9 5 5 9 8 5 4 6 6 7 7 4 6 5 5 3 5 2 1 3 3 3 6 0 3 7 6 6 6 3 4 5 3 3 4 4 6 5 5 1 3 2 6 2 4 3 3 5 6 6 6 9 12 10 10 11 9 7 6 7 9 6 8 9 4 4 4 6 1 6 3 2 1 2 1
13 14 13 13 14 14 14 15 15 16 16 17 9 3 4 8 9 6 5 4 6 6 2 2 3 7 6 4 4 1 2 3 3 3 3 5 5 2 3 2 3 3 7 5 5 4 4 4 5 5 6 3 4 4 3 4 5 2 4 5 5 5 5 5 7 10 10 9 11 10 8 7 6 7 10 9 4 6 8 2 6 3 2 1 2 3 2
13 14 14 14 14 14 14 14 15 16 16 18 11 7 4 9 10 12 8 7 6 10 7 4 5 9 5 7 6 6 5 5 5 7 4 4 5 6 5 5 7 5 6 5 5 4 4 6 5 3 6 7 4 3 5 10 8 8 6 7 7 6 5 6 9 6 7 7 11 10 11 2 5 11 6 9 7 6 3 3 3 2 2 2 2 4 3
14 14 14 13 13 14 14 14 15 16 16 18 16 7 6 6 10 10 7 4 4 7 9 3 3 10 8 9 10 9 8 6 5 8 7 4 3 4 5 4 5 6 4 4 5 4 3 5 5 4 3 6 2 3 6 5 6 8 9 8 9 6 8 7 8 7 7 9 9 7 3 3 11 10 4 10 12 2 2 4 4 2 4 6 5 5 4
14 13 13 13 13 14 14 14 15 16 16 18 17 8 8 6 6 7 5 1 7 7 4 2 3 5 8 9 8 7 7 9 5 5 5 3 5 7 3 2 2 5 3 4 5 2 4 6 4 5 6 5 3 7 7 8 9 4 5 4 5 8 12 6 8 7 9 7 8 8 3 3 8 7 7 3 9 8 4 4 6 7 6 4 7 7 5
14 14 14 14 14 13 13 14 15 15 17 18 15 9 10 6 4 4 5 6 5 6 7 7 7 9 10 12 12 11 12 9 7 4 5 6 4 6 8 7 7 1 2 5 7 7 6 4 6 6 8 8 7 8 10 11 9 8 7 12 11 6 9 2 5 11 12 15 15 12 8 7 6 8 8 8 6 7 6 6 7 7 7 6 7 6 7
14 14 14 14 14 14 13 14 15 15 17 19 16 11 10 5 6 8 4 3 4 3 6 9 7 7 9 12 10 13 13 13 12 9 6 6 6 4 4 6 2 1 5 4 3 6 5 4 5 4 8 8 7 8 9 9 10 10 12 11 11 12 9 8 8 8 9 11 8 12 15 15 14 13 10 9 9 10 10 9 8 8 8 7 7 7 7
14 13 14 14 14 14 13 14 15 15 16 19 18 11 2 2 7 10 10 6 4 4 4 3 11 13 2 4 3 3 8 9 9 11 10 9 10 8 3 3 2 5 5 3 3 7 3 5 6 6 9 7 7 10 9 10 10 9 12 12 10 10 9 11 15 16 14 12 13 13 10 9 8 6 7 9 10 12 11 10 8 8 8 8 7 6 7
13 13 13 13 13 13 13 13 14 15 16 19 17 11 11 10 8 8 2 3 2 3 4 7 8 4 4 6 9 8 4 8 9 13 14 13 12 11 6 3 4 2 2 1 4 5 6 7 6 8 10 7 7 8 10 11 13 11 14 14 10 1 8 7 8 12 14 17 19 18 16 17 17 16 13 11 12 12 11 10 10 9 10 9 8 6 7
13 13 13 13 13 13 13 13 14 15 16 18 15 11 11 6 9 12 11 9 5 2 4 7 6 4 6 9 4 5 7 8 8 10 12 14 15 12 10 7 5 4 6 4 3 3 3 5 7 11 10 9 5 10 10 11 13 13 14 14 13 10 13 13 12 12 14 14 14 9 9 8 10 13 14 14 14 14 14 12 11 10 11 11 12 10 8
13 13 14 13 13 13 13 14 13 14 15 17 13 11 10 9 9 12 9 6 10 4 1 2 3 3 1 9 9 9 8 9 9 9 9 11 13 13 12 11 9 8 7 6 5 5 6 9 11 7 7 8 7 10 11 12 13 15 17 16 13 15 17 13 13 14 13 13 16 13 13 15 15 16 15 15 16 15 16 16 15 15 13 12 11 11 10
14 14 14 14 14 14 14 13 14 14 15 14 9 11 10 9 5 8 10 5 2 2 1 1 4 2 4 2 2 7 9 9 9 9 9 9 11 11 11 12 11 10 8 6 5 5 7 8 5 7 8 4 6 9 9 13 13 19 14 12 15 17 17 18 18 17 18 18 16 14 12 13 14 15 14 15 13 14 16 16 14 14 14 13 12 11 12
16 15 15 15 15 14 15 14 14 14 14 9 8 6 7 5 10 10 12 12 7 2 3 3 4 2 3 2 6 7 9 10 9 10 10 9 9 9 9 10 10 9 8 6 5 7 7 6 5 8 9 4 7 6 9 12 15 18 14 16 16 16 17 17 18 18 16 14 14 13 13 14 14 14 13 13 12 12 12 12 13 13 13 12 13 12 12
17 17 16 16 15 16 16 15 15 15 14 9 6 3 4 4 7 14 16 12 9 7 1 0 4 2 3 2 5 11 10 9 9 8 10 10 9 9 8 7 7 8 7 6 6 7 4 8 5 8 7 10 8 8 12 13 16 17 18 14 13 13 14 16 16 16 16 15 14 14 13 14 12 11 13 15 16 14 13 12 13 13 13 13 13 12 11
17 17 17 16 16 16 16 16 16 15 11 11 12 7 2 1 1 11 17 13 9 4 2 2 1 1 2 2 3 4 9 9 8 6 6 7 7 7 8 9 8 9 7 7 7 7 9 7 8 8 9 7 9 9 12 15 14 23 12 3 9 10 11 13 14 15 14 15 14 14 16 17 15 14 12 12 11 11 11 12 12 11 11 11 11 11 11
17 17 17 17 17 16 17 17 18 14 12 13 10 7 4 3 1 8 15 12 7 2 3 1 4 1 2 2 2 3 8 7 6 7 6 6 6 7 8 8 8 8 7 6 8 6 5 6 7 11 11 9 7 7 13 18 22 22 12 12 11 12 13 13 14 14 15 15 15 15 15 15 14 13 13 13 12 11 11 11 11 9 9 10 12 12 12
16 16 17 17 16 16 16 17 16 17 15 10 10 11 3 7 5 13 13 9 4 2 1 2 3 3 2 2 3 7 10 8 8 9 6 7 7 7 6 7 9 6 8 11 7 6 6 7 8 9 7 10 10 10 15 22 18 16 16 16 16 14 13 14 15 16 16 16 16 18 19 18 16 15 15 13 12 12 12 11 11 12 12 13 14 14 13
14 14 15 16 15 15 15 14 10 12 11 9 6 4 8 12 12 15 16 10 6 1 2 2 1 4 4 1 4 4 9 7 8 10 8 6 7 8 7 6 6 8 7 9 8 9 9 9 8 8 12 9 9 15 15 17 12 12 12 14 14 13 14 15 17 17 16 16 16 16 17 19 19 18 17 16 15 14 14 13 12 13 13 14 14 14 13
12 12 13 13 15 12 6 10 10 9 8 6 4 10 18 15 17 13 13 3 1 4 4 4 5 8 6 7 7 4 7 6 3 5 4 4 5 6 7 7 7 8 4 7 8 9 10 8 6 12 9 11 16 14 15 14 14 15 15 16 15 13 14 17 17 16 16 16 17 17 18 19 20 19 17 17 17 15 15 15 15 14 15 15 15 13 12
11 10 9 10 7 5 8 7 4 8 4 7 9 13 16 12 4 6 7 4 3 1 4 4 9 11 12 9 1 3 9 8 7 6 7 5 6 4 8 6 8 3 3 6 8 10 10 7 9 11 11 16 17 15 17 17 17 17 18 16 15 14 15 16 17 18 19 19 20 17 17 19 19 16 17 17 16 15 15 17 16 15 17 17 15 14 13
10 9 8 7 5 4 3 6 5 10 21 24 19 10 5 4 3 3 2 4 3 3 3 4 10 6 5 8 5 6 7 5 8 6 5 4 5 3 4 4 4 3 6 5 9 8 5 5 9 12 14 17 19 17 17 15 16 15 16 16 16 16 16 16 16 17 18 19 19 19 19 19 18 17 16 17 16 16 15 15 14 14 15 15 15 14 14
8 7 7 8 5 6 3 4 15 22 14 8 4 2 1 0 3 2 3 2 2 5 3 7 9 9 10 10 1 1 4 6 9 8 7 8 6 4 3 6 3 2 5 4 6 9 7 6 4 7 15 17 15 19 18 18 19 18 17 16 16 16 15 15 15 17 18 17 17 16 15 15 16 16 15 15 14 14 14 14 14 13 13 14 14 14 15
7 8 5 4 9 2 5 15 24 14 7 5 1 3 2 2 4 4 3 4 3 5 6 10 9 12 16 14 11 9 6 9 11 10 7 4 1 3 4 3 3 3 6 8 4 7 7 10 7 5 12 14 13 15 14 14 14 14 13 14 15 15 14 14 14 13 16 17 18 18 17 17 17 16 14 13 12 13 13 13 13 12 12 12 12 13 15
8 5 7 7 2 5 7 9 5 3 3 3 1 1 2 3 4 2 4 6 7 5 8 8 10 12 13 11 11 6 2 2 3 2 5 4 1 1 4 4 3 4 5 7 3 4 6 7 9 13 17 14 6 3 3 5 7 9 11 11 12 11 13 13 13 13 14 15 15 15 15 16 16 16 15 15 14 14 13 12 11 11 12 12 14 15 13
7 5 1 2 3 5 8 6 3 2 1 1 3 5 4 1 3 4 4 9 11 5 9 12 14 17 17 18 13 6 2 2 2 1 3 4 3 3 4 3 2 5 6 3 6 3 4 6 8 13 18 16 11 13 12 11 10 10 9 9 10 12 13 12 13 12 12 13 13 13 12 13 13 13 13 13 13 13 13 12 13 13 13 13 12 12 12
6 4 4 4 4 4 2 3 3 2 5 3 3 4 4 6 7 7 7 5 2 6 7 9 8 8 5 7 4 3 3 3 3 2 3 4 2 1 4 3 3 5 4 2 3 3 7 10 11 18 16 9 10 7 7 7 7 9 10 11 11 11 11 11 11 11 10 11 12 12 11 11 11 11 10 11 11 12 12 12 13 12 11 11 11 11 11
8 7 7 2 4 3 3 8 3 2 4 3 6 8 8 8 8 8 7 8 8 8 11 14 15 17 11 7 8 4 3 0 1 1 1 2 2 4 4 5 5 2 3 2 2 8 10 8 15 18 10 7 5 7 7 7 9 10 10 9 9 9 9 10 10 9 10 10 10 10 10 10 10 9 9 9 9 11 11 11 11 11 11 11 11 11 11
6 7 3 2 4 2 4 4 3 4 7 8 4 8 9 14 13 14 12 7 9 13 15 13 15 14 10 6 4 1 2 5 2 3 3 4 4 4 4 4 3 3 6 9 6 7 7 13 17 14 14 14 13 13 12 10 9 9 9 9 8 9 9 9 9 8 9 8 9 9 9 8 8 8 8 9 9 9 10 11 10 10 10 11 12 12 11
8 6 4 4 5 3 4 3 4 6 4 6 7 11 13 14 10 10 7 8 9 13 16 15 12 9 10 3 3 5 4 4 6 4 4 3 4 6 4 1 2 7 5 7 9 12 13 17 15 10 11 13 11 8 6 6 7 7 8 8 7 7 8 8 8 8 8 7 7 7 8 8 8 8 8 9 9 10 10 11 10 10 10 10 11 11 11
3 2 3 2 4 3 2 6 7 5 6 10 10 11 12 11 11 8 8 10 11 13 11 8 8 6 10 6 3 3 3 4 4 4 4 4 5 2 3 5 6 6 7 9 12 12 14 16 11 9 10 9 6 6 7 7 6 6 6 6 6 7 7 7 7 8 8 9 9 9 9 8 8 8 9 9 10 10 11 11 11 10 10 11 11 11 11
6 2 3 5 4 4 9 7 5 4 5 8 10 10 9 8 9 10 10 10 10 12 13 12 9 7 4 2 1 5 6 4 4 5 4 2 2 3 4 5 7 6 6 12 15 13 14 10 7 7 7 7 7 7 7 6 6 6 6 6 6 7 7 7 7 7 7 8 8 8 8 8 9 9 9 10 11 11 10 9 9 10 11 11 11 11 11
2 3 5 3 2 2 4 7 9 9 8 7 8 10 10 11 11 10 10 9 11 12 13 13 9 8 4 3 3 4 5 5 4 4 4 5 6 6 6 7 9 13 12 11 13 14 13 11 9 8 7 6 6 6 6 6 6 6 6 6 6 6 6 6 6 6 7 7 8 9 9 9 8 8 9 9 10 10 9 9 10 10 10 11 11 11 11
4 3 2 2 2 3 4 5 8 11 9 7 9 10 11 11 11 8 9 9 9 10 8 8 4 3 3 4 3 4 3 4 3 4 7 11 9 5 7 14 13 11 9 12 14 13 10 8 5 6 5 6 7 7 7 7 7 7 6 7 7 6 7 7 7 7 7 7 8 8 8 8 8 8 8 8 8 9 9 9 9 10 10 10 10 10 11
1 2 3 4 6 4 8 9 11 11 11 10 9 9 10 11 11 10 10 11 14 11 6 5 3 3 4 2 4 5 3 3 3 8 7 8 6 8 14 16 10 10 11 11 12 11 11 10 8 8 7 8 7 8 8 7 7 7 7 7 7 7 6 7 7 7 8 8 8 9 9 9 7 6 5 5 7 7 8 10 11 10 10 9 10 11 11
3 5 6 8 9 6 8 7 7 9 9 10 10 9 10 12 9 9 8 10 8 11 10 5 5 4 4 7 5 2 3 3 3 3 9 10 8 13 13 13 9 8 9 9 8 8 8 7 7 7 7 7 7 8 7 7 7 7 8 9 8 8 8 7 7 7 8 8 8 8 8 8 7 6 5 5 6 6 7 7 7 8 9 8 8 10 11
Wind_Direction
294 304 316 322 327 328 332 341 351 358 345 355 351 313 254 223 342 92 15 359 239 245 235 120 206 219 62 118 105 116 170 174 132 212 161 208 170 185 233 58 238 166 299 233 251 250 268 270 256 20 240 160 59 75 19 271 222 253 117 152 133 197 250 247 250 277 240 191 60 34 358 298 243 225 248 246 241 248 261 273 314 291 241 242 252 245 267
290 304 316 322 325 324 329 339 354 3 15 352 320 302 349 333 308 148 119 163 271 253 239 208 190 119 127 201 116 13 56 188 171 217 152 282 166 254 146 168 277 13 220 251 264 96 257 170 262 215 228 165 78 68 26 225 216 258 81 300 131 242 147 282 291 246 207 206 198 204 180 233 248 253 221 241 279 272 281 292 275 264 264 267 272 270 289
294 302 313 320 322 320 326 337 346 2 3 344 325 332 336 293 234 257 17 81 238 263 349 295 179 163 170 172 171 169 165 31 358 309 153 187 265 229 192 2 151 208 214 252 231 159 291 288 119 332 234 91 119 87 348 241 283 61 17 13 130 258 279 253 263 257 240 235 232 239 201 214 217 251 243 220 242 233 226 239 222 251 262 263 247 262 309
294 295 303 316 317 318 325 334 341 350 8 331 310 313 267 242 250 142 177 136 171 107 356 313 274 173 168 201 159 214 169 137 119 288 129 345 123 336 78 150 237 197 208 214 221 203 170 258 276 226 211 167 140 88 118 233 102 76 67 174 219 285 278 259 258 270 274 1 351 42 319 330 256 229 234 231 228 248 250 272 273 264 272 245 245 260 285
281 284 291 308 310 315 320 331 333 348 2 2 321 281 277 324 282 26 184 157 224 192 186 199 233 214 188 221 160 198 216 131 158 263 227 162 213 154 253 203 209 179 232 235 233 215 234 217 257 249 269 195 108 113 102 138 123 134 136 166 244 249 269 234 249 255 261 292 308 344 309 291 282 273 250 240 238 234 239 246 255 294 287 262 263 266 256
271 270 272 283 298 306 314 328 331 335 3 319 290 305 252 258 75 304 31 300 123 200 163 256 182 69 216 199 191 207 190 192 196 159 275 131 196 237 171 226 246 241 228 210 237 198 228 218 245 195 238 246 172 179 176 199 161 194 156 176 254 285 280 271 265 263 264 252 259 267 272 263 275 274 271 259 245 241 245 248 256 262 256 269 300 307 263
272 269 263 262 274 288 304 322 324 327 342 329 310 322 59 308 15 31 354 257 46 10 34 325 225 171 222 153 213 206 218 210 199 219 155 202 199 228 254 218 202 214 215 234 240 229 255 228 233 255 228 235 236 228 176 197 165 203 179 179 262 277 257 51 259 283 264 246 242 241 255 260 255 255 253 254 255 254 250 255 254 256 261 263 271 281 281
263 263 256 252 256 269 281 307 316 324 330 290 299 19 323 29 329 52 248 290 67 97 202 193 206 209 165 236 190 235 215 232 173 199 219 199 197 174 240 238 169 196 212 222 251 231 258 314 270 180 250 217 227 258 261 199 178 217 216 194 159 255 271 106 260 267 260 240 239 244 251 262 265 262 259 256 253 253 252 253 255 260 262 261 266 270 274
253 253 246 237 239 245 262 277 299 319 342 337 359 360 25 339 318 319 300 234 130 181 204 209 228 221 179 238 167 229 219 245 219 212 207 233 211 186 234 145 166 193 228 230 251 265 263 266 266 270 235 257 205 238 211 242 226 205 213 204 179 216 267 157 266 277 276 209 241 250 260 260 265 264 255 249 246 247 241 243 242 245 249 254 256 256 258
246 244 237 232 230 234 242 234 235 306 300 326 331 350 99 278 216 274 296 273 110 246 148 237 233 236 213 259 198 230 228 245 214 236 217 237 256 240 235 178 261 173 212 239 257 293 271 258 273 294 272 264 306 265 323 245 253 228 231 217 235 225 258 259 263 264 273 261 279 280 292 280 265 251 244 247 247 248 250 249 243 241 250 252 247 251 260
244 236 233 229 221 225 228 219 196 212 262 341 338 338 6 350 330 294 248 283 185 236 237 206 234 39 39 182 227 212 244 216 216 243 171 204 204 188 228 206 241 285 274 15 42 15 321 315 278 246 244 255 260 254 251 260 259 262 251 215 239 246 254 264 277 269 272 263 275 292 277 263 273 70 89 192 267 276 261 254 247 247 236 249 255 265 276
240 232 229 224 217 219 222 212 196 189 238 240 219 301 3 319 267 273 277 267 242 163 241 241 254 146 233 155 239 241 237 231 235 239 264 193 120 167 200 211 228 264 81 101 130 119 137 173 200 218 237 246 252 262 260 257 253 238 248 251 245 235 241 254 261 264 268 279 282 281 265 256 57 107 270 261 269 261 254 261 264 264 250 246 253 256 259
237 232 226 222 216 215 216 214 201 191 202 228 208 302 107 226 303 312 301 284 275 211 224 211 115 248 237 220 224 238 277 297 268 257 258 238 176 184 200 203 221 80 137 139 164 240 271 292 279 262 253 249 246 246 249 247 248 246 242 239 247 241 237 248 254 254 267 268 253 260 238 12 309 322 53 59 257 267 253 266 259 249 248 244 247 251 257
238 231 226 220 216 211 211 212 206 196 190 200 224 242 151 204 271 284 278 284 260 280 297 295 233 213 213 222 235 237 255 238 229 218 234 224 235 219 192 219 112 106 160 150 246 296 285 235 281 268 240 220 240 245 244 242 240 245 237 226 235 249 252 247 255 235 255 264 273 267 311 306 288 137 185 172 97 173 259 316 313 299 251 235 242 248 251
238 234 227 221 217 211 207 210 207 199 185 189 237 179 200 214 241 277 310 276 284 292 234 258 296 224 217 221 214 241 231 222 219 215 205 88 245 245 220 169 143 181 149 236 263 241 271 296 280 267 261 250 264 283 140 208 117 19 272 250 229 226 238 233 241 242 239 259 265 261 253 272 136 112 109 97 115 355 340 304 284 194 253 235 241 250 249
237 233 231 226 221 213 207 208 205 198 187 180 200 212 209 201 227 257 257 275 297 270 247 243 276 237 233 213 217 239 251 235 232 230 209 212 214 175 139 130 153 180 191 229 263 279 280 277 270 267 269 282 313 307 264 146 188 125 187 217 225 226 232 249 244 251 234 244 257 255 259 259 26 149 129 148 137 234 283 273 269 93 76 95 251 248 241
238 232 228 227 224 217 210 207 205 199 186 174 191 197 217 177 196 217 231 232 235 252 26 15 293 239 251 212 186 227 227 240 226 231 233 220 211 201 135 137 138 199 197 242 243 240 231 241 264 280 283 287 265 275 280 244 234 161 112 163 195 202 209 222 235 241 244 252 249 250 229 251 123 149 164 126 152 277 283 279 162 102 83 52 262 265 265
249 240 229 225 224 221 214 209 205 201 194 192 190 185 203 177 198 212 235 246 252 261 257 215 228 220 226 282 235 128 158 220 249 248 262 100 158 205 176 163 177 172 244 239 234 250 257 261 262 260 274 95 279 309 269 349 247 236 192 165 173 189 208 208 228 231 235 237 255 263 260 247 234 192 131 144 131 307 288 250 59 84 72 42 322 300 297
251 248 242 231 226 223 218 212 207 203 197 194 207 275 244 178 182 198 239 240 235 254 99 66 311 286 325 338 304 285 301 326 274 235 221 223 215 137 193 146 310 201 185 228 231 252 258 256 254 268 270 175 167 257 276 223 246 168 175 183 177 194 204 214 226 233 237 240 247 251 267 272 254 218 205 152 204 237 244 28 54 34 39 93 296 285 237
247 245 239 233 228 224 221 217 210 206 198 192 189 214 201 175 185 187 196 219 232 253 258 246 207 242 228 249 230 217 199 217 227 244 225 240 122 176 184 218 194 234 211 235 234 242 254 254 261 253 255 263 268 330 263 251 245 237 237 236 256 202 189 209 205 220 235 242 250 255 257 112 180 125 153 175 216 239 288 92 120 73 316 319 265 276 268
246 245 242 237 231 226 223 218 212 208 202 192 190 212 231 194 189 199 226 256 224 254 257 195 261 255 261 248 255 273 266 248 216 228 233 274 125 201 218 229 201 184 216 195 228 223 223 253 245 226 263 282 189 213 252 280 274 238 250 253 250 239 240 239 231 202 232 222 219 229 245 134 160 168 197 182 218 354 49 298 276 232 275 277 285 247 256
249 248 243 240 235 229 225 220 215 212 205 195 190 208 240 199 182 199 188 241 231 225 271 12 267 264 256 263 271 274 276 274 315 326 286 228 177 234 307 337 221 216 227 225 238 258 211 253 271 252 254 241 190 254 265 258 256 206 173 217 238 182 229 241 270 207 221 252 249 237 251 145 184 228 280 281 226 238 257 286 288 302 282 276 266 277 247
246 248 247 242 237 232 228 222 216 213 205 196 187 201 220 187 182 150 129 201 256 292 287 270 253 250 249 252 246 247 246 255 261 247 250 257 233 215 239 238 236 227 260 227 264 280 288 276 249 260 264 260 254 258 247 247 270 264 241 191 245 204 217 198 255 264 272 263 274 298 280 262 249 236 250 259 252 251 253 258 274 267 278 273 279 282 274
242 243 242 241 238 232 229 225 219 213 206 197 188 197 216 194 150 134 161 216 216 264 264 239 248 248 238 251 234 217 223 230 230 229 223 244 240 224 214 242 326 162 237 242 327 273 282 267 286 278 256 256 260 251 258 258 255 263 269 259 245 242 218 219 239 254 265 260 247 246 256 259 256 259 251 248 249 258 259 261 256 268 277 283 267 268 272
238 241 241 239 239 235 232 228 222 215 206 198 195 206 155 112 175 173 160 164 186 186 233 199 217 235 237 98 88 217 223 232 217 213 208 210 231 240 244 46 256 265 258 226 193 242 225 247 233 221 251 252 252 261 255 265 260 248 260 258 260 250 186 235 248 251 247 256 261 261 261 273 287 273 271 261 253 248 247 246 249 260 271 273 276 268 260
236 239 241 240 240 238 235 231 226 219 208 200 193 194 200 208 175 188 193 37 111 163 217 246 251 146 212 211 228 226 196 199 208 206 209 212 220 236 251 187 196 172 231 200 235 234 244 241 249 264 261 256 226 255 259 264 279 278 264 259 267 332 133 237 244 253 255 260 262 264 268 267 263 264 255 256 264 267 255 247 251 250 252 256 256 239 258
236 237 239 240 240 241 238 235 229 222 211 201 196 202 206 202 169 182 190 178 145 254 225 249 244 173 191 216 208 167 184 196 194 205 209 213 217 215 225 225 214 179 204 196 204 251 241 253 254 253 248 263 261 258 270 267 264 263 259 257 256 250 242 247 252 251 252 253 256 251 255 260 263 261 266 271 267 261 263 262 255 252 257 259 258 249 235
243 237 237 238 239 239 241 237 234 224 214 205 202 206 209 206 186 200 207 212 200 241 205 229 253 277 210 251 224 212 193 194 192 195 199 203 208 212 212 214 217 221 212 211 212 209 228 238 237 239 264 271 263 254 246 262 272 268 260 257 244 245 250 252 245 243 252 251 250 248 256 267 270 275 276 275 279 277 267 264 270 271 264 259 253 253 248
254 245 237 238 239 238 236 235 232 227 216 206 207 212 222 218 190 201 211 221 16 299 9 324 333 269 252 72 120 200 197 192 194 197 200 195 197 201 210 211 211 215 220 224 240 251 242 243 249 252 247 241 235 262 266 259 256 257 251 256 246 244 243 240 242 246 256 264 266 267 270 271 274 275 276 276 275 270 269 269 269 269 264 258 251 249 256
255 251 245 239 238 237 235 232 226 223 212 204 201 210 221 233 202 202 200 205 203 163 239 232 239 238 357 205 207 179 173 190 199 206 205 197 194 197 204 203 211 211 217 216 220 237 238 250 246 242 247 240 243 269 263 264 265 267 264 256 255 259 254 252 250 252 256 256 260 261 264 268 269 270 271 275 274 273 271 270 271 269 261 256 257 256 251
253 251 248 242 236 234 233 231 222 214 199 193 176 194 199 235 198 199 190 193 183 188 216 118 244 358 290 231 245 194 171 166 181 194 207 207 202 199 200 199 208 193 208 213 221 237 244 241 234 235 227 225 236 251 255 264 269 277 262 249 252 255 260 259 257 249 249 252 256 260 266 268 268 268 264 262 263 261 256 252 253 252 256 264 262 260 260
251 248 248 244 237 230 230 229 222 207 199 190 194 204 195 192 357 175 174 171 155 171 139 200 281 229 266 232 203 223 191 179 168 175 193 195 200 197 202 201 210 207 219 221 229 241 235 246 246 247 248 200 184 252 255 253 257 255 261 205 245 254 257 261 262 254 243 242 250 259 260 259 253 253 263 262 266 266 259 258 258 260 243 241 253 258 255
254 250 248 246 238 229 228 227 221 208 206 209 216 97 106 99 338 145 156 141 146 196 143 184 215 213 235 219 114 195 154 141 177 184 199 183 194 175 201 195 218 214 199 222 216 231 221 226 233 247 243 244 236 242 249 247 239 249 271 268 264 262 264 258 256 254 249 239 228 237 248 251 257 257 256 257 260 265 268 264 262 258 255 244 244 245 243
254 250 247 243 237 230 228 226 224 213 216 209 221 221 183 90 131 136 145 142 126 131 105 179 193 202 227 30 250 171 182 186 191 180 200 181 194 182 198 200 204 212 202 214 213 230 238 244 240 245 253 236 233 244 248 250 250 263 263 262 260 258 255 255 256 261 252 243 237 234 241 252 262 269 270 264 252 250 255 259 258 255 248 246 248 249 249
256 254 249 245 236 232 228 220 218 211 210 210 224 185 141 135 142 160 158 158 138 204 183 223 192 192 195 180 241 178 194 203 194 188 204 179 173 196 187 203 189 213 212 204 231 230 242 235 236 240 239 240 233 235 242 258 259 250 255 255 256 255 252 251 249 246 242 237 239 239 241 248 255 258 260 259 257 258 257 251 246 249 251 249 249 248 246
256 255 254 248 239 227 214 214 219 210 208 203 170 152 160 161 157 167 181 198 108 165 186 201 183 212 189 195 192 165 164 203 169 150 165 128 175 203 198 192 198 214 198 191 221 220 235 217 220 239 239 237 235 227 241 250 257 258 257 261 260 255 252 251 256 256 249 248 249 250 250 248 249 253 255 256 258 259 257 257 253 248 251 254 254 253 249
249 248 250 256 247 219 212 221 176 204 207 123 129 127 121 118 138 166 190 227 246 295 202 175 204 207 194 212 154 148 171 187 168 168 174 177 179 168 198 201 226 165 177 216 222 234 233 205 227 241 237 238 245 238 246 253 258 264 266 266 268 264 262 260 262 264 263 258 255 251 248 248 248 248 250 252 253 252 251 250 250 249 251 252 253 251 248
252 250 252 250 223 226 231 216 197 134 114 116 113 108 158 153 163 176 175 212 209 177 228 200 225 199 187 207 207 154 199 190 161 175 176 182 158 184 194 214 214 147 216 205 222 215 244 225 228 234 249 249 259 260 253 255 259 262 264 267 268 269 267 267 265 261 259 258 255 250 249 249 249 247 248 250 248 248 248 250 250 250 251 252 251 251 249
246 250 246 232 225 215 224 144 131 129 124 139 93 93 174 221 130 184 202 181 172 220 186 199 207 183 181 196 148 187 237 156 173 180 185 184 194 184 165 198 185 189 238 229 223 174 231 203 226 241 253 256 253 252 252 251 253 255 257 259 264 269 272 268 262 255 252 252 256 255 251 249 246 247 246 249 251 251 253 252 250 248 249 251 249 246 246
226 224 223 220 222 200 95 139 140 129 142 160 193 118 160 212 177 197 145 182 210 226 185 218 198 192 192 188 162 189 174 172 173 189 189 153 278 208 176 208 181 180 230 223 212 163 238 248 211 217 254 252 254 257 246 238 241 246 247 250 257 265 270 267 261 253 250 250 249 250 251 253 255 258 259 257 256 255 252 248 244 243 243 245 246 246 243
212 226 226 231 171 125 145 150 148 105 129 128 116 37 125 180 212 176 162 209 205 204 198 207 170 192 197 199 189 187 144 346 338 14 175 183 146 227 164 188 156 212 222 220 185 199 231 248 250 249 257 254 246 255 190 215 229 250 256 259 262 268 274 274 265 257 250 249 248 249 252 254 254 254 254 255 256 256 255 254 248 240 235 236 235 234 238
192 211 252 84 130 141 153 172 168 117 56 167 156 184 182 186 144 204 208 195 207 193 193 182 188 188 189 189 194 152 159 225 136 190 189 190 172 188 207 196 172 222 233 195 169 210 221 241 242 251 250 255 260 260 257 259 263 267 269 270 274 274 274 272 269 261 253 251 251 251 250 249 251 251 252 251 249 248 250 250 248 243 238 236 234 237 234
259 303 211 188 168 190 155 199 215 175 157 166 150 182 184 194 198 190 200 228 215 197 184 180 191 157 119 111 46 350 107 185 162 165 199 188 93 238 205 202 188 221 217 169 213 223 213 234 245 250 253 259 254 241 225 239 263 272 278 282 280 276 272 268 267 268 261 254 250 250 251 252 251 251 250 250 247 249 248 249 250 252 247 239 233 228 230
211 233 221 198 187 204 185 213 169 169 183 180 171 188 171 200 194 192 210 198 177 181 169 166 169 166 173 177 152 135 125 220 277 142 153 112 153 177 194 216 203 132 100 204 209 221 231 239 240 250 258 261 247 223 234 259 273 285 288 283 283 280 272 266 263 261 259 255 252 250 250 251 254 254 248 245 244 247 250 250 247 244 245 243 237 230 225
189 212 212 215 218 168 179 209 164 205 190 184 186 193 186 204 198 192 207 168 166 178 166 176 172 180 146 128 91 74 182 165 147 160 183 173 199 201 194 214 185 187 213 228 226 233 236 247 246 244 252 252 251 259 272 271 272 278 283 288 285 281 277 271 263 257 257 254 250 245 243 244 251 254 252 249 243 241 246 250 249 242 237 234 234 233 225
208 195 179 206 200 202 195 192 157 203 210 183 195 194 202 213 205 199 172 151 168 168 177 176 174 145 136 178 151 169 152 149 159 193 155 180 197 211 198 222 198 215 216 221 224 229 230 239 246 239 241 250 255 251 238 252 267 269 273 279 285 287 285 281 276 271 268 265 260 251 254 259 259 260 260 258 254 247 241 243 245 243 240 235 233 230 226
208 191 220 247 236 193 181 213 202 205 190 199 202 199 208 211 220 208 162 166 166 164 150 143 136 130 143 152 133 137 167 159 163 175 163 183 192 188 164 205 215 200 210 210 220 225 235 242 248 249 246 240 233 225 232 244 248 260 275 280 279 278 281 281 280 275 273 271 268 266 264 263 264 265 267 267 263 256 246 240 240 234 232 233 232 227 224
205 165 189 216 205 161 198 213 230 231 221 206 192 190 193 203 210 197 174 184 174 141 132 130 121 108 98 308 290 162 161 166 159 183 187 197 173 210 193 214 223 212 212 220 224 220 236 245 243 235 225 218 230 246 244 236 243 259 271 272 273 273 273 276 279 280 283 281 278 274 271 271 272 272 270 270 271 266 257 245 235 228 226 228 229 227 223
168 187 203 225 210 191 211 197 206 225 210 204 187 183 184 184 199 194 169 150 150 152 155 148 145 121 133 137 155 154 184 179 175 177 170 204 201 202 179 216 204 221 217 216 228 230 234 243 245 232 211 216 228 233 233 239 247 252 264 273 273 275 273 273 275 282 283 277 270 267 267 269 274 276 277 276 273 270 265 248 233 224 221 222 223 222 220
177 223 255 195 168 228 215 198 203 220 204 189 190 193 192 198 199 175 141 119 106 94 65 41 39 89 138 140 174 186 186 181 196 167 189 206 206 206 208 232 220 219 212 202 224 233 233 235 217 198 216 239 235 233 233 236 234 242 258 267 266 263 263 266 270 272 274 275 272 266 263 262 262 267 279 286 287 286 279 260 242 233 227 223 221 219 220
262 260 249 233 221 194 161 198 201 210 210 205 202 203 193 199 190 160 144 135 141 134 139 156 162 129 142 155 165 178 203 158 202 206 207 205 199 214 218 227 223 212 219 212 221 226 234 231 226 237 239 236 230 227 232 239 238 244 261 266 266 268 266 261 262 262 262 261 259 255 251 248 251 265 278 280 279 279 275 263 252 246 238 224 216 215 215
174 200 220 215 224 233 209 223 225 223 224 211 209 208 197 206 171 141 138 124 134 152 167 145 141 139 169 192 187 119 99 149 220 210 225 226 210 218 223 224 228 217 219 223 222 218 222 223 215 215 225 234 231 232 235 239 247 258 266 269 267 262 262 258 256 254 256 258 255 250 247 245 245 247 252 261 265 263 265 277 272 249 238 236 229 224 223